#datint,netname,site,siteID,timestamp,IntT,BattV,AirT2,AirT,AirT_Avg,AirT_Max,AirT_Min,RH_Avg,RH_Max,RH_Min,EA_Avg,Td_Avg,Td_Max,Td_Min,WindS_Smp,WindS_Avg,WindD_Avg,WindD_SD,WindS_Max,ETo,ETr,SoilT4,SoilT8,SoilVWC8,SolarW_Avg,wetstate_Avg,wetT_Avg,Precip_accum,Precip_WPG,Precip_TB
15min,AgWx,beryljct,423,07MAY2021:01:00:00,49.3,12.86,45.0,44.4,45.5,46.4,44.4,59,64,56,0.633,32.2,32.9,31.5,1.491,2.3,140,9.6,3.9,-0.00007,-0.00007,56.1,57.2,12,0,0,.,8.92,0.00,0.00
15min,AgWx,beryljct,423,07MAY2021:01:15:00,48.5,12.84,46.7,46.5,45.6,46.6,44.5,61,65,57,0.615,33.1,33.6,32.0,2.061,1.8,164,19,3.9,-0.00012,-0.00014,55.9,57.1,12,0,0,.,8.92,0.00,0.00
15min,AgWx,beryljct,423,07MAY2021:01:30:00,48.1,12.84,46.6,46.2,47.2,48.3,46.1,54,61,46,0.644,31.5,33.8,28.0,3.179,2.6,170,19,4.6,-0.00003,-0.00001,55.6,57.1,13,0,0,.,8.92,0.00,0.00
15min,AgWx,beryljct,423,07MAY2021:01:45:00,47.8,12.84,50.3,49.4,47.3,49.8,44.6,51,63,35,0.483,29.7,33.6,23.2,3.771,3.4,181,8.6,5.0,0.00004,0.00009,55.4,57.0,13,0,0,.,8.92,0.00,0.00
15min,AgWx,beryljct,423,07MAY2021:02:00:00,47.6,12.82,45.7,47.2,48.0,50.9,46.4,45,50,36,0.536,27.5,29.1,24.8,4.121,3.9,194,11,5.0,0.00012,0.00019,55.2,56.9,13,0,0,.,8.92,0.00,0.00
15min,AgWx,beryljct,423,07MAY2021:02:15:00,47.7,12.82,56.6,57.3,51.1,58.2,46.9,41,50,28,0.490,28.0,30.3,24.9,4.187,4.3,213,6.1,5.1,0.00018,0.00027,55.0,56.9,12,0,0,.,8.92,0.00,0.00
15min,AgWx,beryljct,423,07MAY2021:02:30:00,48.6,12.81,58.3,57.4,56.3,58.1,54.3,31,36,27,0.474,26.4,28.0,24.5,3.683,3.6,210,4.8,4.4,0.00019,0.00030,54.8,56.8,13,0,0,.,8.92,0.00,0.00
15min,AgWx,beryljct,423,07MAY2021:02:45:00,49.6,12.8,44.5,46.7,57.1,61.3,46.7,33,55,24,0.542,26.8,33.4,23.9,4.428,3.3,242,39,4.6,0.00017,0.00028,54.5,56.7,13,0,0,.,8.92,0.00,0.00
15min,AgWx,beryljct,423,07MAY2021:03:00:00,49.0,12.8,47.0,46.7,45.7,46.9,44.7,51,61,43,0.471,28.6,32.2,25.6,1.863,3.1,318,7.1,4.7,0.00002,0.00006,54.3,56.6,13,0,0,.,8.93,0.00,0.00
15min,AgWx,beryljct,423,07MAY2021:03:15:00,47.9,12.79,42.3,42.6,45.4,47.3,42.6,51,61,42,0.542,28.2,30.9,25.2,2.806,2.4,55,48,4.8,-0.00003,-0.00001,54.1,56.6,12,0,0,.,8.92,0.00,0.00
15min,AgWx,beryljct,423,07MAY2021:03:30:00,46.6,12.77,43.5,43.3,43.2,45.0,41.7,55,62,47,0.527,28.0,29.7,25.9,1.535,1.1,23,57,2.6,-0.00017,-0.00023,53.9,56.5,13,0,0,.,8.92,0.00,0.00
15min,AgWx,beryljct,423,07MAY2021:03:45:00,45.7,12.76,44.1,44.1,44.8,46.6,43.3,52,57,43,0.557,28.0,29.8,25.1,0.68,1.8,297,13,3.1,-0.00010,-0.00011,53.7,56.4,13,0,0,.,8.92,0.00,0.00
15min,AgWx,beryljct,423,07MAY2021:04:00:00,45.0,12.77,44.7,43.2,43.1,44.6,42.1,58,62,52,0.503,29.4,30.9,27.2,2.126,1.2,291,22,2.9,-0.00016,-0.00022,53.5,56.3,13,0,0,.,8.93,0.00,0.00
15min,AgWx,beryljct,423,07MAY2021:04:15:00,44.4,12.74,41.7,43.4,43.3,44.9,41.2,53,63,47,0.522,27.5,29.6,25.6,1.535,1.9,304,20,3.7,-0.00008,-0.00009,53.3,56.2,13,0,0,.,8.92,0.00,0.00
15min,AgWx,beryljct,423,07MAY2021:04:30:00,44.1,12.75,44.4,44.7,45.3,47.0,42.9,46,56,40,0.476,25.7,28.4,24.1,1.841,1.4,317,18,2.6,-0.00013,-0.00016,53.1,56.1,13,0,0,.,8.92,0.00,0.00
15min,AgWx,beryljct,423,07MAY2021:04:45:00,43.7,12.74,41.9,42.2,43.2,44.6,42.0,52,58,48,0.531,26.6,28.6,25.2,1.162,1.3,330,12,2.3,-0.00014,-0.00018,52.9,56.0,13,0,0,.,8.92,0.00,0.00
15min,AgWx,beryljct,423,07MAY2021:05:00:00,43.1,12.74,41.8,41.3,41.7,42.8,40.1,57,65,51,0.514,27.7,29.4,25.5,0,0.8,347,40,2.2,-0.00021,-0.00029,52.8,55.9,13,0,0,.,8.93,0.00,0.00
15min,AgWx,beryljct,423,07MAY2021:05:15:00,42.5,12.72,41.0,40.6,41.2,42.0,40.0,57,62,52,0.509,26.9,28.3,25.8,1.885,0.3,117,46,3.7,-0.00027,-0.00041,52.6,55.8,13,0,0,.,8.92,0.00,0.00
15min,AgWx,beryljct,423,07MAY2021:05:30:00,42.1,12.71,46.8,43.7,42.9,44.2,40.6,50,59,45,0.474,25.7,27.4,24.3,4.626,3.2,312,18,4.8,0.00003,0.00006,52.4,55.7,13,0,0,.,8.93,0.00,0.00
15min,AgWx,beryljct,423,07MAY2021:05:45:00,42.2,12.71,43.6,45.0,44.7,46.6,43.8,47,51,42,0.477,25.9,26.8,24.2,0.175,2.0,316,17,4.8,-0.00006,-0.00005,52.2,55.6,13,0,0,.,8.93,0.00,0.00
15min,AgWx,beryljct,423,07MAY2021:06:00:00,42.2,12.7,42.6,42.0,44.4,47.0,41.2,49,58,43,0.514,26.4,27.9,25.3,0,1.3,176,37,5.1,0.00016,0.00027,52.0,55.5,13,0,0,.,8.92,0.00,0.00
15min,AgWx,beryljct,423,07MAY2021:06:15:00,42.0,12.69,40.1,39.5,41.4,42.4,39.5,59,64,55,0.520,28.2,29.1,27.3,1.863,1.1,315,48,2.3,0.00011,0.00018,51.8,55.4,13,0,0,.,8.93,0.00,0.00
15min,AgWx,beryljct,423,07MAY2021:06:30:00,41.5,12.7,37.7,39.7,41.3,42.9,39.5,53,63,47,0.499,25.4,28.0,23.3,0.417,1.1,11,50,2.8,0.00013,0.00022,51.7,55.3,13,2,0,.,8.93,0.00,0.00
15min,AgWx,beryljct,423,07MAY2021:06:45:00,41.0,12.7,41.0,40.8,39.6,41.0,37.6,61,71,54,0.506,27.0,28.9,25.4,0,0.1,75,6.8,0.8,0.00008,0.00009,51.5,55.2,13,13,0,.,8.93,0.00,0.00
15min,AgWx,beryljct,423,07MAY2021:07:00:00,41.0,12.72,41.4,41.0,40.7,41.8,39.5,60,65,54,0.504,27.9,29.4,26.1,4.209,1.8,170,60,4.6,0.00036,0.00048,51.3,55.2,13,45,0,.,8.93,0.00,0.00
15min,AgWx,beryljct,423,07MAY2021:07:15:00,41.4,12.74,41.3,40.4,39.9,41.0,39.2,66,73,58,0.548,29.5,31.5,27.2,1.951,2.3,166,9.1,4.9,0.00050,0.00064,51.1,55.0,13,82,0,.,8.92,0.00,0.00
15min,AgWx,beryljct,423,07MAY2021:07:30:00,42.5,12.71,44.0,44.1,42.1,44.1,40.5,60,65,54,0.527,29.1,30.2,28.2,3.464,2.7,163,12,3.9,0.00071,0.00091,51.0,54.9,13,124,0,.,8.92,0.00,0.00
15min,AgWx,beryljct,423,07MAY2021:07:45:00,44.6,12.73,48.9,48.0,45.5,48.0,43.7,60,68,55,0.734,32.6,36.6,28.8,1.403,2.8,176,19,4.5,0.00095,0.00118,50.8,54.9,13,170,0,.,8.92,0.00,0.00
15min,AgWx,beryljct,423,07MAY2021:08:00:00,47.6,12.75,49.8,50.2,49.9,50.9,48.2,64,71,54,0.874,38.1,41.2,34.9,2.302,0.9,117,60,2.5,0.00112,0.00125,50.7,54.7,13,217,0,.,8.92,0.00,0.00
15min,AgWx,beryljct,423,07MAY2021:08:15:00,50.8,12.75,52.6,52.5,51.4,52.6,50.1,64,75,58,0.810,39.4,42.7,37.5,0.46,0.9,88,23,2.3,0.00140,0.00155,50.5,54.7,13,268,0,.,8.92,0.00,0.00
15min,AgWx,beryljct,423,07MAY2021:08:30:00,53.8,12.83,54.3,53.9,53.2,53.9,52.4,58,66,51,0.831,39.0,42.7,35.3,1.162,1.4,92,18,2.2,0.00175,0.00197,50.5,54.6,13,321,0,.,8.91,0.00,0.00
15min,AgWx,beryljct,423,07MAY2021:08:45:00,56.5,12.93,58.2,58.0,55.4,58.0,54.0,53,63,47,0.801,38.5,41.8,35.1,3.464,1.8,44,11,3.5,0.00213,0.00243,50.4,54.5,13,374,0,.,8.91,0.00,0.00
15min,AgWx,beryljct,423,07MAY2021:09:00:00,59.7,13.14,67.3,67.1,63.0,67.1,58.0,35,49,25,0.574,34.2,39.7,29.8,9.86,7.1,153,71,15.5,0.00324,0.00428,50.4,54.3,13,427,0,.,8.91,0.00,0.00
15min,AgWx,beryljct,423,07MAY2021:09:15:00,63.3,13.45,67.0,67.0,66.9,67.3,66.5,27,29,24,0.552,31.5,33.9,29.5,10.83,12.4,173,14,17.8,0.00436,0.00616,50.4,54.3,13,481,0,.,8.90,0.00,0.00
15min,AgWx,beryljct,423,07MAY2021:09:30:00,65.8,14.08,68.0,67.7,67.6,68.0,67.0,25,27,24,0.559,30.7,32.9,29.3,14.07,13.2,176,11,18.3,0.00476,0.00669,50.4,54.2,13,531,0,.,8.90,0.00,0.00
15min,AgWx,beryljct,423,07MAY2021:09:45:00,67.6,14.17,69.5,69.3,68.2,69.3,67.7,26,28,23,0.624,31.9,33.8,29.2,11.03,12.3,174,13,16.3,0.00496,0.00684,50.4,54.1,13,581,0,.,8.90,0.00,0.00
15min,AgWx,beryljct,423,07MAY2021:10:00:00,69.2,14.17,69.8,69.3,69.3,69.5,69.0,25,27,23,0.625,31.6,34.0,29.8,17.21,14.6,188,10,21.1,0.00549,0.00764,50.6,54.0,13,628,0,.,8.89,0.00,0.00
15min,AgWx,beryljct,423,07MAY2021:10:15:00,70.3,14.07,69.4,69.6,69.5,70.0,69.2,24,26,21,0.619,30.7,32.7,28.6,11.84,16.6,194,11,25.7,0.00592,0.00832,50.7,53.9,13,674,0,.,8.89,0.00,0.00
15min,AgWx,beryljct,423,07MAY2021:10:30:00,71.2,14.07,69.5,69.7,69.8,70.3,69.4,23,25,20,0.533,30.5,32.6,27.5,14.67,15.5,193,10,22.3,0.00609,0.00843,50.9,53.8,13,717,0,.,8.88,0.00,0.00
15min,AgWx,beryljct,423,07MAY2021:10:45:00,71.8,14.04,69.9,70.1,70.1,70.5,69.7,21,23,19,0.495,28.1,30.4,26.0,17.98,17.4,185,12,23.1,0.00654,0.00913,51.1,53.7,13,761,0,.,8.88,0.00,0.00
15min,AgWx,beryljct,423,07MAY2021:11:00:00,72.4,14.04,70.0,70.4,70.3,70.7,69.8,21,25,19,0.504,28.6,32.8,25.4,18.74,16.3,178,12,22.1,0.00666,0.00917,51.4,53.7,13,800,0,.,8.88,0.00,0.00
15min,AgWx,beryljct,423,07MAY2021:11:15:00,72.9,14.12,70.3,70.8,70.9,71.6,70.0,21,23,18,0.467,28.7,31.4,25.5,18.11,17.0,182,14,24.3,0.00694,0.00957,51.7,53.6,13,836,0,.,8.88,0.00,0.00
15min,AgWx,beryljct,423,07MAY2021:11:30:00,73.2,14.08,71.5,71.1,71.0,71.7,70.2,20,22,18,0.506,28.4,30.2,25.5,18,17.5,179,13,25.8,0.00714,0.00983,52.0,53.6,13,867,0,.,8.88,0.00,0.00
15min,AgWx,beryljct,423,07MAY2021:11:45:00,73.5,14.02,73.4,72.2,71.3,72.2,70.5,20,23,19,0.536,28.7,32.0,26.4,18.72,17.4,179,12,23.8,0.00731,0.01001,52.4,53.5,13,894,0,.,8.88,0.00,0.00
15min,AgWx,beryljct,423,07MAY2021:12:00:00,73.9,13.72,71.4,71.6,71.8,73.0,70.5,21,24,19,0.560,29.9,32.8,26.9,17.98,15.0,182,16,20.2,0.00730,0.00978,52.8,53.5,13,919,0,.,8.88,0.00,0.00
15min,AgWx,beryljct,423,07MAY2021:12:15:00,74.0,13.64,73.0,72.0,71.6,72.4,70.8,21,24,19,0.538,29.4,32.8,26.7,17.14,17.8,174,12,24.2,0.00755,0.01030,53.2,53.5,13,941,0,.,8.88,0.00,0.00
15min,AgWx,beryljct,423,07MAY2021:12:30:00,74.0,13.63,71.0,71.1,71.5,72.3,70.9,22,25,20,0.619,30.6,34.1,28.0,18.63,19.4,166,12,26.6,0.00767,0.01052,53.7,53.5,13,959,0,.,8.87,0.00,0.00
15min,AgWx,beryljct,423,07MAY2021:12:45:00,74.0,13.7,71.7,72.6,71.6,72.6,71.1,22,26,19,0.595,31.2,35.0,27.7,14.49,17.1,169,13,24.0,0.00761,0.01026,54.1,53.5,13,976,0,.,8.88,0.00,0.00
15min,AgWx,beryljct,423,07MAY2021:13:00:00,74.5,13.58,73.0,73.7,73.0,73.7,72.3,21,25,19,0.535,30.5,34.4,28.0,26.11,18.1,181,13,26.1,0.00794,0.01078,54.6,53.5,13,987,0,.,8.88,0.00,0.00
15min,AgWx,beryljct,423,07MAY2021:13:15:00,75.1,13.61,73.4,73.4,73.5,74.1,73.0,20,22,18,0.588,30.5,32.7,27.9,13.24,17.5,196,11,25.7,0.00802,0.01087,55.1,53.5,13,995,0,.,8.87,0.00,0.00
15min,AgWx,beryljct,423,07MAY2021:13:30:00,75.4,13.59,73.2,73.5,73.7,74.4,73.3,21,25,18,0.521,31.4,35.5,27.5,15.83,17.8,193,19,25.5,0.00802,0.01087,55.6,53.5,13,995,0,.,8.88,0.00,0.00
15min,AgWx,beryljct,423,07MAY2021:13:45:00,75.8,13.69,72.4,73.8,74.0,74.4,73.5,20,22,18,0.601,30.5,32.8,27.7,15.1,18.3,191,13,28.6,0.00814,0.01109,56.1,53.6,13,999,0,.,8.88,0.00,0.00
15min,AgWx,beryljct,423,07MAY2021:14:00:00,76.2,13.6,73.4,73.4,74.0,74.9,73.1,21,24,19,0.590,31.2,34.5,28.9,12.67,16.3,192,20,25.2,0.00796,0.01069,56.6,53.6,13,991,0,.,8.88,0.00,0.00
15min,AgWx,beryljct,423,07MAY2021:14:15:00,76.2,13.64,74.4,73.7,73.9,74.6,73.4,20,24,18,0.529,30.8,34.9,28.2,15.59,19.1,199,14,26.0,0.00774,0.01072,57.1,53.7,13,914,0,.,8.88,0.00,0.00
15min,AgWx,beryljct,423,07MAY2021:14:30:00,76.4,13.61,72.8,73.7,74.3,75.0,73.7,21,23,19,0.622,31.5,34.0,28.5,20.63,19.7,201,13,26.9,0.00811,0.01116,57.7,53.7,13,973,0,.,8.88,0.00,0.00
15min,AgWx,beryljct,423,07MAY2021:14:45:00,76.5,13.57,73.4,75.0,74.4,75.4,73.4,21,23,19,0.581,32.2,34.8,29.7,18.35,18.6,197,11,26.4,0.00792,0.01087,58.2,53.9,13,951,0,.,8.88,0.00,0.00
15min,AgWx,beryljct,423,07MAY2021:15:00:00,76.6,13.55,75.3,74.7,74.2,74.9,73.4,22,26,19,0.580,33.2,37.3,29.2,17.91,16.9,202,17,24.9,0.00763,0.01035,58.6,53.9,13,930,0,.,8.88,0.00,0.00
15min,AgWx,beryljct,423,07MAY2021:15:15:00,76.9,13.55,75.5,75.7,75.0,75.8,74.3,20,23,18,0.636,31.3,34.6,28.2,13.9,17.2,195,20,27.5,0.00773,0.01060,59.1,54.0,13,912,0,.,8.88,0.00,0.00
15min,AgWx,beryljct,423,07MAY2021:15:30:00,77.1,13.53,75.6,74.5,74.8,75.9,74.3,19,22,17,0.558,30.1,33.3,27.3,18.33,19.2,196,17,26.3,0.00777,0.01083,59.5,54.1,13,892,0,.,8.88,0.00,0.00
15min,AgWx,beryljct,423,07MAY2021:15:45:00,77.3,13.53,74.1,74.3,74.7,75.6,73.7,19,21,17,0.521,29.7,32.5,27.7,19.47,18.4,201,15,27.0,0.00757,0.01057,60.0,54.2,13,866,0,.,8.89,0.00,0.00
15min,AgWx,beryljct,423,07MAY2021:16:00:00,77.2,13.55,75.1,75.4,74.5,75.4,74.0,18,20,16,0.576,28.2,30.6,25.8,16.13,19.5,202,11,28.0,0.00751,0.01063,60.3,54.4,13,834,0,.,8.88,0.00,0.00
15min,AgWx,beryljct,423,07MAY2021:16:15:00,77.5,13.54,73.9,74.3,74.7,75.4,73.9,18,20,16,0.488,28.4,31.4,25.9,19.99,19.0,209,13,28.2,0.00719,0.01024,60.7,54.5,13,775,0,.,8.88,0.00,0.00
15min,AgWx,beryljct,423,07MAY2021:16:30:00,77.4,13.53,73.7,74.2,73.9,74.3,73.7,18,20,16,0.498,27.2,30.1,25.3,27.45,20.3,215,12,27.5,0.00713,0.01028,61.0,54.6,13,762,0,.,8.88,0.00,0.00
15min,AgWx,beryljct,423,07MAY2021:16:45:00,77.2,13.58,74.1,74.0,73.9,74.4,73.6,16,19,15,0.474,25.5,28.8,22.9,27.99,19.9,211,14,28.4,0.00696,0.01010,61.2,54.8,13,723,0,.,8.89,0.00,0.00
15min,AgWx,beryljct,423,07MAY2021:17:00:00,77.1,13.54,73.0,73.4,73.9,74.1,73.4,16,19,13,0.435,24.3,28.8,20.7,18.15,18.4,205,11,26.1,0.00658,0.00959,61.5,54.9,13,668,0,.,8.89,0.00,0.00
15min,AgWx,beryljct,423,07MAY2021:17:15:00,77.0,13.52,73.2,72.9,73.5,73.9,72.9,16,20,13,0.507,24.6,29.2,20.1,16.44,18.1,205,9.8,24.4,0.00629,0.00922,61.6,55.0,13,630,0,.,8.88,0.00,0.00
15min,AgWx,beryljct,423,07MAY2021:17:30:00,76.7,13.52,73.3,73.7,73.2,73.9,72.9,17,19,16,0.505,26.0,29.0,23.7,14.89,16.7,210,16,22.5,0.00582,0.00855,61.7,55.2,13,581,0,.,8.88,0.00,0.00
15min,AgWx,beryljct,423,07MAY2021:17:45:00,76.6,13.55,72.7,72.6,73.3,73.7,72.6,18,20,17,0.528,27.8,29.6,26.1,15.52,16.7,201,14,25.3,0.00542,0.00809,61.8,55.3,13,512,0,.,8.88,0.00,0.00
15min,AgWx,beryljct,423,07MAY2021:18:00:00,76.3,13.55,74.0,73.6,73.2,73.9,72.6,19,21,18,0.529,28.3,30.9,26.7,20.12,15.6,192,11,22.7,0.00511,0.00762,61.8,55.4,13,482,0,.,8.88,0.00,0.00
15min,AgWx,beryljct,423,07MAY2021:18:15:00,76.1,13.53,72.6,72.4,72.7,73.7,71.9,20,23,18,0.588,29.2,32.4,27.2,10.46,14.8,204,15,24.0,0.00469,0.00708,61.8,55.6,13,432,0,.,8.88,0.00,0.00
15min,AgWx,beryljct,423,07MAY2021:18:30:00,75.7,13.57,71.1,71.9,72.6,73.1,71.9,20,21,18,0.558,28.7,30.7,27.4,13.99,16.6,198,14,22.3,0.00455,0.00709,61.7,55.7,13,369,0,.,8.88,0.00,0.00
15min,AgWx,beryljct,423,07MAY2021:18:45:00,75.1,13.54,71.9,72.0,71.9,72.3,71.2,20,23,19,0.527,29.1,31.6,27.7,19.49,15.9,194,14,22.2,0.00412,0.00652,61.7,55.8,13,318,0,.,8.88,0.00,0.00
15min,AgWx,beryljct,423,07MAY2021:19:00:00,74.6,13.2,71.3,71.6,71.8,72.2,71.3,20,22,19,0.523,28.8,31.2,27.7,17.14,16.6,189,10,22.7,0.00394,0.00640,61.6,56.0,13,268,0,.,8.89,0.00,0.00
15min,AgWx,beryljct,423,07MAY2021:19:15:00,74.0,13.11,70.9,70.9,71.2,71.8,70.9,20,22,19,0.525,28.6,30.5,27.7,15.26,17.6,197,11,25.6,0.00376,0.00628,61.4,56.1,13,217,0,.,8.89,0.00,0.00
15min,AgWx,beryljct,423,07MAY2021:19:30:00,73.4,13.06,70.4,70.5,70.8,71.1,70.5,20,21,20,0.541,28.4,29.4,27.8,12.93,16.2,193,9.2,21.8,0.00330,0.00565,61.2,56.2,13,168,0,.,8.88,0.00,0.00
15min,AgWx,beryljct,423,07MAY2021:19:45:00,72.6,13.01,69.7,70.2,70.4,70.7,70.0,21,21,20,0.512,28.2,29.0,27.1,15.59,16.5,191,8.7,21.8,0.00162,0.00195,61.0,56.3,13,122,0,.,8.89,0.00,0.00
15min,AgWx,beryljct,423,07MAY2021:20:00:00,71.7,13.03,69.0,68.9,69.5,70.2,68.9,22,23,20,0.531,28.5,29.8,27.2,12.47,13.5,191,9.7,22.0,0.00139,0.00171,60.8,56.4,13,80,0,.,8.89,0.00,0.00
15min,AgWx,beryljct,423,07MAY2021:20:15:00,70.6,13.01,68.2,68.2,68.5,69.0,68.0,22,23,21,0.518,28.3,29.1,27.7,14.51,13.2,193,8.9,19.5,0.00126,0.00155,60.6,56.5,13,35,0,.,8.89,0.00,0.00
15min,AgWx,beryljct,423,07MAY2021:20:30:00,69.4,12.99,67.1,67.9,67.8,68.3,67.3,22,23,21,0.515,27.9,28.7,27.1,11,13.3,196,8.7,19.6,0.00120,0.00148,60.4,56.6,13,7,0,.,8.89,0.00,0.00
15min,AgWx,beryljct,423,07MAY2021:20:45:00,68.4,12.97,65.9,65.9,67.0,67.9,65.7,23,24,21,0.503,27.6,28.4,26.9,8.94,10.7,193,9.2,16.9,0.00101,0.00129,60.1,56.7,13,2,0,.,8.89,0.00,0.00
15min,AgWx,beryljct,423,07MAY2021:21:00:00,67.0,12.97,64.9,64.8,65.1,65.9,64.3,24,26,23,0.510,27.8,28.8,27.2,9.8,8.9,194,7.5,12.3,0.00082,0.00107,59.9,56.7,13,0,0,.,8.89,0.00,0.00
15min,AgWx,beryljct,423,07MAY2021:21:15:00,65.9,12.96,62.2,63.0,64.4,65.2,63.0,25,27,24,0.525,27.7,28.3,27.0,6.094,8.4,193,6.5,12.9,0.00077,0.00102,59.7,56.8,13,0,0,.,8.89,0.00,0.00
15min,AgWx,beryljct,423,07MAY2021:21:30:00,64.4,12.95,62.8,62.0,62.1,62.9,61.6,27,28,27,0.506,27.8,28.4,27.3,8.9,7.4,190,6.5,10.4,0.00062,0.00084,59.5,56.8,13,0,0,.,8.89,0.00,0.00
15min,AgWx,beryljct,423,07MAY2021:21:45:00,63.1,12.93,61.3,60.3,61.0,62.2,60.3,28,29,27,0.506,27.6,28.2,27.2,8.9,6.9,191,5.7,8.9,0.00057,0.00077,59.2,56.9,13,0,0,.,8.89,0.00,0.00
15min,AgWx,beryljct,423,07MAY2021:22:00:00,62.2,12.92,64.1,63.1,61.4,63.1,60.3,27,29,25,0.495,27.3,27.9,26.7,10.04,8.1,195,7.2,11.5,0.00066,0.00088,59.0,56.9,13,0,0,.,8.89,0.00,0.00
15min,AgWx,beryljct,423,07MAY2021:22:15:00,62.4,12.93,64.2,64.4,63.9,64.6,63.1,24,25,23,0.485,26.5,27.2,26.0,8.66,9.8,198,8.0,14.2,0.00086,0.00110,58.7,56.9,13,0,0,.,8.89,0.00,0.00
15min,AgWx,beryljct,423,07MAY2021:22:30:00,62.9,12.92,64.1,64.3,64.4,64.7,64.0,23,24,23,0.481,26.3,26.9,25.7,9.95,10.0,204,7.1,14.0,0.00089,0.00114,58.5,56.9,13,0,0,.,8.90,0.00,0.00
15min,AgWx,beryljct,423,07MAY2021:22:45:00,63.1,12.92,62.7,63.2,63.7,64.3,63.1,24,25,23,0.483,26.0,27.1,25.3,6.686,8.5,207,7.2,12.6,0.00077,0.00102,58.2,56.9,13,0,0,.,8.89,0.00,0.00
15min,AgWx,beryljct,423,07MAY2021:23:00:00,62.8,12.91,61.8,61.6,62.6,63.2,61.6,24,26,23,0.478,25.7,26.6,24.9,7.19,7.5,211,6.2,10.8,0.00067,0.00090,58.0,56.9,13,0,0,.,8.89,0.00,0.00
15min,AgWx,beryljct,423,07MAY2021:23:15:00,62.3,12.9,61.6,61.2,61.5,62.3,61.0,26,27,24,0.487,26.0,26.7,24.6,10.57,7.8,227,19,11.4,0.00066,0.00088,57.8,56.9,13,0,0,.,8.90,0.00,0.00
15min,AgWx,beryljct,423,07MAY2021:23:30:00,62.4,12.9,63.0,63.2,62.6,63.2,61.3,25,27,24,0.529,26.5,28.5,24.9,13.31,11.6,264,14,16.5,0.00092,0.00114,57.6,56.9,13,0,0,.,8.90,0.00,0.00
15min,AgWx,beryljct,423,07MAY2021:23:45:00,62.5,12.9,60.8,60.6,61.9,63.2,60.6,30,33,27,0.583,30.3,31.3,28.6,10.83,10.7,285,12,15.3,0.00079,0.00100,57.4,56.9,13,0,0,.,8.90,0.00,0.00
15min,AgWx,beryljct,423,08MAY2021:00:00:00,61.9,12.89,58.2,58.4,59.6,60.7,58.4,35,38,32,0.636,32.1,33.1,30.9,5.524,7.0,286,7.5,11.4,0.00049,0.00066,57.2,56.9,13,0,0,.,8.90,0.00,0.00
15min,AgWx,beryljct,423,08MAY2021:00:15:00,60.8,12.88,56.8,56.5,57.2,58.4,56.2,41,43,38,0.638,33.4,33.9,32.7,5.174,5.0,288,5.8,5.7,0.00027,0.00039,57.0,56.9,13,0,0,.,8.90,0.00,0.00
15min,AgWx,beryljct,423,08MAY2021:00:30:00,59.4,12.88,54.3,54.8,56.3,57.5,54.8,41,43,37,0.631,32.7,33.4,31.5,5.634,5.5,260,6.0,6.7,0.00030,0.00043,56.8,56.9,13,0,0,.,8.90,0.00,0.00
15min,AgWx,beryljct,423,08MAY2021:00:45:00,58.0,12.87,60.7,59.9,56.5,60.0,54.1,38,44,31,0.549,31.3,33.0,29.2,2.324,5.2,273,27,7.6,0.00031,0.00044,56.7,56.8,13,0,0,.,8.90,0.00,0.00
15min,AgWx,bigpiney,439,07MAY2021:01:00:00,43.3,12.63,37.2,36.8,37.2,37.7,36.6,70,73,68,0.524,28.4,29.2,27.9,0.811,3.3,336,16,5.6,-0.00000,0.00001,40.6,31.9,44,0,0,0.0,1.14,0.00,0.00
15min,AgWx,bigpiney,439,07MAY2021:01:15:00,42.6,12.63,37.2,37.2,37.2,37.5,36.8,71,73,70,0.548,28.7,29.4,28.0,1.184,0.7,312,12,2.5,-0.00014,-0.00021,40.5,31.9,44,0,0,0.0,1.14,0.00,0.00
15min,AgWx,bigpiney,439,07MAY2021:01:30:00,42.0,12.62,38.1,37.8,37.6,38.1,37.1,72,77,69,0.595,29.4,31.4,28.7,3.727,1.6,239,25,4.5,-0.00009,-0.00011,40.3,31.9,44,0,0,0.0,1.14,0.00,0.00
15min,AgWx,bigpiney,439,07MAY2021:01:45:00,41.6,12.61,39.4,38.9,38.3,38.9,37.8,70,78,67,0.539,29.6,31.8,28.9,5.919,4.3,273,9.4,6.1,0.00003,0.00005,40.2,31.9,45,0,0,0.0,1.14,0.00,0.00
15min,AgWx,bigpiney,439,07MAY2021:02:00:00,41.5,12.6,41.2,40.8,40.2,40.9,38.9,63,67,59,0.511,28.5,29.0,27.6,4.735,5.3,290,5.0,6.5,0.00010,0.00014,40.1,31.9,45,0,0,0.0,1.14,0.00,0.00
15min,AgWx,bigpiney,439,07MAY2021:02:15:00,41.8,12.59,40.2,40.6,40.7,41.0,40.4,61,64,58,0.548,28.2,29.3,27.1,3.836,3.7,267,15,5.0,0.00005,0.00009,39.9,31.9,45,0,0,0.0,1.14,0.00,0.00
15min,AgWx,bigpiney,439,07MAY2021:02:30:00,41.9,12.59,37.8,37.5,37.5,40.6,36.6,75,77,65,0.567,30.2,31.2,29.6,4.823,4.6,213,4.2,5.7,0.00002,0.00004,39.8,32.0,45,0,0,0.0,1.14,0.00,0.00
15min,AgWx,bigpiney,439,07MAY2021:02:45:00,41.8,12.57,37.1,36.9,37.9,38.5,36.8,74,77,71,0.574,30.4,31.2,29.9,4.297,3.5,205,14,5.0,-0.00001,-0.00000,39.6,31.9,45,0,0,0.0,1.14,0.00,0.00
15min,AgWx,bigpiney,439,07MAY2021:03:00:00,41.7,12.57,38.0,37.7,37.2,37.7,36.9,77,79,75,0.578,30.7,31.0,30.4,5.305,6.8,217,8.3,9.5,0.00005,0.00007,39.5,31.9,45,0,0,0.0,1.14,0.00,0.00
15min,AgWx,bigpiney,439,07MAY2021:03:15:00,41.6,12.56,38.2,37.9,37.9,38.2,37.7,75,76,74,0.589,30.8,31.1,30.5,5.108,4.5,226,8.5,6.2,0.00002,0.00003,39.3,32.0,45,0,0,0.0,1.14,0.00,0.00
15min,AgWx,bigpiney,439,07MAY2021:03:30:00,41.6,12.55,39.0,39.1,39.5,40.3,37.9,72,77,68,0.592,31.3,32.1,30.6,5.678,5.5,222,15,7.8,0.00006,0.00008,39.2,31.9,45,0,0,0.0,1.14,0.00,0.00
15min,AgWx,bigpiney,439,07MAY2021:03:45:00,42.0,12.55,41.4,40.7,39.8,40.7,38.9,70,74,67,0.580,30.8,31.5,30.2,3.025,5.0,236,20,8.3,0.00006,0.00008,39.1,31.9,45,0,0,0.0,1.14,0.00,0.00
15min,AgWx,bigpiney,439,07MAY2021:04:00:00,42.1,12.54,39.1,39.5,41.0,41.7,39.5,63,68,60,0.561,29.5,30.7,28.4,4.889,2.9,291,40,5.3,0.00001,0.00003,38.9,31.9,45,0,0,0.0,1.14,0.00,0.00
15min,AgWx,bigpiney,439,07MAY2021:04:15:00,41.9,12.52,37.0,36.7,37.8,39.4,36.6,76,81,69,0.588,30.8,31.5,30.0,1.425,1.4,328,25,4.7,-0.00010,-0.00013,38.8,31.9,45,0,0,0.0,1.14,0.00,0.00
15min,AgWx,bigpiney,439,07MAY2021:04:30:00,41.3,12.52,36.4,37.6,37.7,38.2,36.7,74,80,71,0.562,30.2,31.1,29.7,3.025,2.8,347,32,4.6,-0.00003,-0.00003,38.7,31.9,46,0,0,0.0,1.14,0.00,0.00
15min,AgWx,bigpiney,439,07MAY2021:04:45:00,40.6,12.5,36.7,36.2,35.9,37.4,34.7,79,82,74,0.561,30.0,30.7,28.9,2.762,1.5,345,73,4.0,-0.00010,-0.00013,38.5,31.9,46,0,0,0.0,1.14,0.00,0.00
15min,AgWx,bigpiney,439,07MAY2021:05:00:00,39.7,12.48,33.6,33.5,35.0,36.3,33.5,79,82,76,0.527,29.3,29.8,28.1,4.077,2.1,247,43,4.6,-0.00008,-0.00009,38.4,31.9,46,0,0,0.0,1.14,0.00,0.00
15min,AgWx,bigpiney,439,07MAY2021:05:15:00,38.8,12.48,32.6,32.5,32.5,33.5,31.9,81,82,78,0.504,27.2,28.4,26.2,3.573,4.3,206,15,6.2,-0.00001,-0.00001,38.3,31.9,46,0,0,0.0,1.14,0.00,0.00
15min,AgWx,bigpiney,439,07MAY2021:05:30:00,38.0,12.48,34.1,33.7,32.8,33.7,32.5,81,82,80,0.524,27.6,28.3,27.2,3.223,3.6,216,17,4.8,-0.00003,-0.00003,38.1,31.9,46,0,0,0.0,1.14,0.00,0.00
15min,AgWx,bigpiney,439,07MAY2021:05:45:00,37.2,12.46,31.7,31.2,31.1,33.6,30.0,81,83,79,0.474,25.9,28.3,25.1,5.13,5.1,185,8.0,8.0,-0.00000,0.00001,38.0,31.9,46,0,0,0.0,1.14,0.00,0.00
15min,AgWx,bigpiney,439,07MAY2021:06:00:00,36.6,12.45,33.8,33.1,31.8,33.1,31.2,80,81,79,0.510,26.4,27.6,25.8,3.464,4.5,223,17,5.8,-0.00001,0.00000,37.9,31.9,46,1,0,0.0,1.14,0.00,0.00
15min,AgWx,bigpiney,439,07MAY2021:06:15:00,36.1,12.45,29.7,30.0,31.8,33.3,30.0,81,83,79,0.464,26.6,28.0,25.3,3.442,2.7,188,19,4.2,-0.00004,-0.00005,37.8,31.9,46,6,0,0.0,1.14,0.00,0.00
15min,AgWx,bigpiney,439,07MAY2021:06:30:00,35.7,12.45,32.0,31.8,30.9,31.9,29.7,83,85,82,0.499,26.3,27.3,25.1,0.833,2.3,221,40,5.2,-0.00024,-0.00021,37.6,31.9,46,18,0,0.0,1.14,0.00,0.00
15min,AgWx,bigpiney,439,07MAY2021:06:45:00,35.5,12.46,32.1,31.8,31.7,31.9,31.5,83,84,82,0.510,27.3,27.7,26.9,4.319,2.8,216,18,4.5,-0.00008,-0.00004,37.5,31.9,46,35,0,0.0,1.14,0.00,0.00
15min,AgWx,bigpiney,439,07MAY2021:07:00:00,35.6,12.45,34.3,33.8,32.8,33.8,31.8,83,84,81,0.535,28.1,28.9,27.4,2.192,3.7,247,15,4.9,0.00015,0.00023,37.4,31.9,46,32,0,0.0,1.14,0.00,0.00
15min,AgWx,bigpiney,439,07MAY2021:07:15:00,35.8,12.53,37.8,37.0,35.0,37.0,33.9,76,81,74,0.560,28.3,29.9,27.4,1.973,3.0,261,6.2,4.4,0.00024,0.00034,37.3,31.9,46,73,0,0.0,1.14,0.00,0.00
15min,AgWx,bigpiney,439,07MAY2021:07:30:00,36.8,12.56,40.1,40.0,38.2,40.0,36.9,71,76,63,0.530,29.6,30.5,28.5,0,1.2,316,18,2.9,0.00041,0.00048,37.2,32.0,46,166,0,0.0,1.14,0.00,0.00
15min,AgWx,bigpiney,439,07MAY2021:07:45:00,38.8,12.61,40.4,39.8,39.8,40.3,39.4,72,77,64,0.612,31.6,33.1,28.7,0,0.6,182,11,1.9,0.00061,0.00068,37.1,31.8,46,199,0,0.0,1.14,0.00,0.00
15min,AgWx,bigpiney,439,07MAY2021:08:00:00,41.0,12.71,43.1,43.0,41.3,43.0,39.8,72,74,69,0.694,32.8,35.3,31.6,0,0.0,79,0.2,0.2,0.00090,0.00096,36.9,31.9,47,263,0,0.0,1.14,0.00,0.00
15min,AgWx,bigpiney,439,07MAY2021:08:15:00,43.6,12.92,46.8,46.2,44.9,46.2,43.0,62,74,48,0.523,32.4,35.7,27.4,0,0.3,222,16,1.6,0.00130,0.00140,36.8,31.9,47,331,0,0.0,1.14,0.00,0.00
15min,AgWx,bigpiney,439,07MAY2021:08:30:00,46.0,13.23,46.4,46.6,46.2,46.7,45.5,55,62,49,0.563,31.0,33.4,28.1,2.061,0.6,31,17,2.4,0.00180,0.00195,36.7,31.9,47,413,0,0.0,1.14,0.00,0.00
15min,AgWx,bigpiney,439,07MAY2021:08:45:00,48.2,13.47,47.8,47.6,47.0,47.8,46.5,51,56,49,0.596,30.0,33.0,28.3,2.368,1.1,60,27,2.6,0.00206,0.00229,36.6,31.9,47,453,0,0.0,1.14,0.00,0.00
15min,AgWx,bigpiney,439,07MAY2021:09:00:00,50.5,13.74,48.7,48.6,48.2,48.7,47.5,49,54,45,0.520,29.8,32.3,27.9,1.469,1.1,44,19,3.7,0.00246,0.00272,36.5,31.9,47,516,0,0.0,1.14,0.00,0.00